DW4098 Weather Reports


time (UTC)temp
C
wind
direction
speed
KPH
gust
KPH
rain 1hr
cm
rain 24hr
cm
rain mn
cm
humidity
%
barometer
mb
20260504210136 17 0 0.0 0.0 0.00 1.09 0.81 95 1019.1
20260504205136 0 315 41.8 38.6 0.00 0.74 0.64 1 1022.4
20260504204115 17 0 0.0 0.0 0.00 1.09 0.81 94 1018.6
20260504203116 17 0 0.0 0.0 0.00 1.09 0.81 94 1018.4
20260504202136 0 315 41.8 38.6 0.00 0.74 0.64 1 1022.4
20260504201115 0 315 41.8 38.6 0.00 0.74 0.64 1 1022.4
20260504200116 0 315 41.8 38.6 0.00 0.74 0.64 1 1021.4
20260504195115 17 0 0.0 0.0 0.00 1.09 0.81 94 1018.2
20260504194115 17 292 0.0 3.2 0.00 1.09 0.81 93 1018.1
20260504193136 17 301 1.6 3.2 0.00 1.09 0.81 93 1018.0
20260504192116 0 315 41.8 38.6 0.00 0.74 0.64 1 1021.4
20260504191115 17 301 1.6 4.8 0.00 1.09 0.81 94 1018.1
20260504190116 17 311 0.0 1.6 0.00 1.09 0.81 94 1018.1
20260504185115 17 327 0.0 3.2 0.00 1.09 0.81 94 1018.0
20260504184115 17 338 1.6 6.4 0.00 1.09 0.81 94 1017.9
20260504183115 0 315 41.8 38.6 0.00 0.74 0.64 1 1021.4
20260504182116 17 336 0.0 4.8 0.00 1.09 0.81 94 1017.9
20260504181115 0 315 41.8 38.6 0.00 0.74 0.64 1 1021.4
20260504180136 17 142 1.6 3.2 0.00 1.09 0.81 94 1017.9
20260504175115 0 315 41.8 38.6 0.00 0.74 0.64 1 1021.4
20260504174114 0 315 41.8 38.6 0.00 0.74 0.64 1 1021.4
20260504173115 17 297 1.6 4.8 0.00 1.09 0.81 93 1017.5
20260504172135 17 292 1.6 8.0 0.00 1.09 0.81 94 1017.6
20260504172114 0 315 41.8 38.6 0.00 0.74 0.64 1 1021.4
20260504171115 17 0 0.0 0.0 0.00 1.09 0.81 93 1017.5
20260504170137 17 310 0.0 3.2 0.00 1.09 0.81 93 1017.2
20260504160115 17 327 3.2 9.7 0.69 1.09 0.81 93 1017.9
20260504151115 0 315 41.8 38.6 0.20 0.30 0.20 1 1021.4
20260504150115 17 312 8.0 14.5 0.13 0.41 0.13 94 1018.1
20260504141115 17 173 0.0 3.2 0.00 0.28 0.00 94 1017.4
20260504140137 0 315 41.8 38.6 0.00 0.10 0.00 1 1021.4
20260504130115 17 80 0.0 0.0 0.00 0.28 0.28 94 1017.5
20260504120114 0 315 41.8 38.6 0.00 0.10 0.10 1 1021.4
20260504110115 17 0 0.0 0.0 0.00 0.28 0.28 93 1018.1
20260504100115 0 315 41.8 38.6 0.10 0.10 0.10 1 1021.4
20260504090114 0 315 41.8 38.6 0.00 0.00 0.00 1 1021.4
20260504081134 0 315 41.8 38.6 0.00 0.00 0.00 1 1021.4
20260504080114 18 325 3.2 8.0 0.03 0.13 0.13 88 1017.4
20260504070113 0 315 41.8 38.6 0.00 0.00 0.00 1 1020.4
20260504060114 0 315 41.8 38.6 0.00 0.00 0.00 1 1020.4
20260504050135 0 315 41.8 38.6 0.00 0.00 0.00 1 1020.4
20260504045113 21 253 0.0 8.0 0.00 0.03 0.03 76 1016.6
20260504044113 0 315 41.8 38.6 0.00 0.00 0.00 1 1020.4
20260504043134 0 315 41.8 38.6 0.00 0.00 0.00 1 1020.4
20260504042113 0 315 41.8 38.6 0.00 0.00 0.00 1 1020.4
20260504041113 0 315 41.8 38.6 0.00 0.00 0.00 1 1020.4
20260504040114 0 315 41.8 38.6 0.00 0.00 0.00 1 1020.4
20260504035113 0 315 41.8 38.6 0.00 0.00 0.00 1 1020.4
20260504034113 0 315 41.8 38.6 0.00 0.00 0.00 1 1021.4
20260504033113 20 312 3.2 6.4 0.00 0.00 0.00 74 1016.9
20260504032113 21 291 3.2 12.9 0.00 0.00 0.00 75 1017.0
20260504031113 0 315 41.8 38.6 0.00 0.00 0.00 1 1021.4
20260504030114 0 315 41.8 38.6 0.00 0.00 0.00 1 1021.4
20260504025113 0 315 41.8 38.6 0.00 0.00 0.00 1 1021.4
20260504024113 0 315 41.8 38.6 0.00 0.00 0.00 1 1021.4
20260504023113 23 286 14.5 25.7 0.00 0.00 0.00 56 1017.6
20260504022113 23 281 9.7 20.9 0.00 0.00 0.00 54 1017.7
20260504021113 0 315 41.8 38.6 0.00 0.00 0.00 1 1022.4
20260504020114 24 287 14.5 25.7 0.00 0.00 0.00 52 1018.1
20260504015112 25 270 11.3 22.5 0.00 0.00 0.00 49 1018.1
20260504014134 26 276 9.7 19.3 0.00 0.00 0.00 48 1018.1
20260504013134 25 259 6.4 16.1 0.00 0.00 0.00 49 1018.2
20260504012113 0 315 41.8 38.6 0.00 0.00 0.00 1 1022.4
20260504011134 0 315 41.8 38.6 0.00 0.00 0.00 1 1022.4
20260504010113 0 315 41.8 38.6 0.00 0.00 0.00 1 1023.4
20260504005134 25 317 8.0 17.7 0.00 0.00 0.00 49 1018.4
20260504004113 0 315 41.8 38.6 0.00 0.00 0.00 1 1022.4
20260504003113 0 315 41.8 38.6 0.00 0.00 0.00 1 1022.4
20260504002113 0 315 41.8 38.6 0.00 0.00 0.00 1 1022.4
20260504001112 23 173 3.2 8.0 0.00 0.00 0.00 62 1018.5
20260504000113 23 155 4.8 8.0 0.00 0.00 0.00 63 1018.5
20260503235113 0 315 41.8 38.6 0.00 0.00 0.00 1 1022.4
20260503234112 0 315 41.8 38.6 0.00 0.00 0.00 1 1022.4
20260503233112 0 315 41.8 38.6 0.00 0.00 0.00 1 1022.4
20260503232112 20 66 0.0 3.2 0.00 0.00 0.00 73 1018.7
20260503231134 19 132 0.0 1.6 0.00 0.00 0.00 74 1018.8
20260503230113 18 0 0.0 0.0 0.00 0.00 0.00 78 1018.8
20260503225113 17 0 0.0 0.0 0.00 0.00 0.00 82 1018.8
20260503224112 17 0 0.0 0.0 0.00 0.00 0.00 83 1018.9
20260503223112 0 315 41.8 38.6 0.00 0.00 0.00 1 1022.4
20260503222112 14 0 0.0 0.0 0.00 0.00 0.00 88 1018.8
20260503221113 13 0 0.0 0.0 0.00 0.00 0.00 89 1018.8
20260503220134 13 0 0.0 0.0 0.00 0.00 0.00 89 1018.8
20260503215112 13 0 0.0 0.0 0.00 0.00 0.00 89 1018.8
20260503214112 0 315 41.8 38.6 0.00 0.00 0.00 1 1022.4
20260503213112 13 0 0.0 0.0 0.00 0.00 0.00 90 1018.6
20260503212134 0 315 41.8 38.6 0.00 0.00 0.00 1 1021.4
20260503211113 12 0 0.0 0.0 0.00 0.00 0.00 90 1018.5